Regional Weather Roundup
Issued by NWS Albany, NY

Home | Current Version | Previous Version | Text Only | Print | Product List | Glossary On
Versions: 1 2 3 4 5 6 7 8 9 10 11 12 13 14 15 16 17 18 19 20 21 22 23 24 25 26 27 28 29 30 31 32 33 34 35 36 37 38 39 40 41 42 43 44 45 46 47 48 49
000
ASUS41 KALY 061910
RWRALY

NEW YORK STATE HOURLY WEATHER ROUNDUP
NATIONAL WEATHER SERVICE ALBANY NY
200 PM EST FRI MAR 06 2015

NOTE: "FAIR" INDICATES FEW OR NO CLOUDS BELOW 12,000 FEET WITH NO
SIGNIFICANT WEATHER AND/OR NO OBSTRUCTIONS TO VISIBILITY.

NYZ032-033-038>043-046>054-057>066-NYZ062>081-062000-
EAST


CITY           SKY/WX    TMP DP  RH WIND       PRES   REMARKS
ALBANY         SUNNY     23  -2  33 NW6       30.43F WCI  16
GLENS FALLS    SUNNY     22   2  42 S15G21    30.40F WCI   9
POUGHKEEPSIE   SUNNY     25  -1  32 VRB3      30.45F
NEWBURGH       SUNNY     25   3  39 CALM      30.44F
MONTGOMERY     SUNNY     23   1  38 S6        30.42F WCI  16
WHITE PLAINS   SUNNY     23   0  36 CALM      30.42F
ISLIP          SUNNY     24  -4  29 N3        30.45F
NEW YORK CITY  SUNNY     26   2  35 CALM      30.48F
CENTRAL PARK   SUNNY     24   0  35 W8        30.49F WCI  15
$$

NYZ005>009-017-018-044>046-055-056-062000-
CENTRAL


CITY           SKY/WX    TMP DP  RH WIND       PRES   REMARKS
FULTON         MOSUNNY   19   3  49 SW10      30.42F WCI   7
SYRACUSE       PTSUNNY   20   4  50 W12       30.43F WCI   8
ROME           SUNNY     16   3  56 W6        30.44F WCI   7
ELMIRA         SUNNY     21   0  39 W7        30.38F WCI  12
BINGHAMTON     SUNNY     17  -1  45 SW8       30.32F WCI   7
MONTICELLO     SUNNY     19  -2  38 NW3       30.35F
$$

NYZ026>034-041>043-062000-
NORTH


CITY           SKY/WX    TMP DP  RH WIND       PRES   REMARKS
WATERTOWN      SUNNY     20   6  55 SW13G23   30.41F WCI   7
FORT DRUM      NOT AVBL
MASSENA        SUNNY     19   1  45 SW18G26   30.37F WCI   4
SARANAC LAKE   SUNNY     17  -9  31 W8G21     30.23F WCI   7
PLATTSBURGH    SUNNY     19   1  45 SE17      30.35F WCI   4
$$

NYZ001>004-010>016-019>021-062000-
WEST


CITY           SKY/WX    TMP DP  RH WIND       PRES   REMARKS
NIAGARA FALLS  PTSUNNY   18   6  59 SW23      30.39F WCI   0
BUFFALO        PTSUNNY   19   5  54 SW20      30.40F WCI   3
DUNKIRK        SUNNY     20   7  57 W12G21    30.41F WCI   8
JAMESTOWN      SUNNY     18   1  49 SW12      30.32F WCI   5
WELLSVILLE     SUNNY     19  -4  36 W8        30.28F WCI   9
ROCHESTER      MOSUNNY   20   0  41 SW12      30.40F WCI   8
PENN YAN       SUNNY     20   0  41 S7        30.37F WCI  11
$$

             KEY
       WCI = WIND CHILL INDEX
       VSB = VISIBILITY
       HX  = HEAT INDEX
$$



USA.gov is the U.S. government's official web portal to all federal, state and local government web resources and services.